Location: Newark
(48.1281°N, 2.1556°W)
Time: 07:31:27
(UTC+00:00)

Envisat - Pass Details

Date: 21 November 2019
Orbit: 764 x 766 km, 98.1° (Epoch: 13 December)

Event Time Altitude Azimuth Distance (km) Brightness Sun altitude
Rises 06:23:55 0° 20° (NNE) 3,243 6.3 -9.9°
Reaches altitude 10° 06:26:25 10° 29° (NNE) 2,312 5.6 -9.5°
Maximum altitude 06:31:05 36° 96° (E) 1,203 4.8 -8.8°
Drops below altitude 10° 06:35:44 10° 163° (SSE) 2,295 6.0 -8.1°
Sets 06:38:12 0° 171° (S) 3,217 6.7 -7.7°
